[[{"header":{"parameterUnit":"m.s-1","parameterCategory":1,"la1":30.2991,"la2":30.254,"lo1":-89.0895,"lo2":-89.0444,"dy":0.0017,"dx":0.0017,"nx":28,"ny":28,"refTime":"2025-09-03T09:00:00:Z","depth":0,"parameterNumber":2,"parameterNumberName":"U-component_of_WINDS"},"data":[0,0,0,0,0,0,0,0,0,0,0,0,0,0,0,0,0,0,0,0,0,0,0,0,0,0,0,0,0,0,0,0,0,0,0,0,0,0,0,0,0,0,0,0,0,0,0,0,0,0,0,0,0,0,0,0,0,0,2.3076,2.3076,0,2.3125,2.3125,2.3126,2.3093,2.3092,2.309,2.3089,2.3137,2.314,2.3143,0,0,0,0,0,0,0,0,0,0,0,0,0,2.2951,2.2953,2.3076,2.3076,2.3077,2.3125,2.3125,2.3126,2.3093,2.3092,2.309,2.3088,2.3137,2.314,2.3143,0,0,0,0,0,0,0,0,0,0,0,0,0,2.3003,2.2954,2.3076,2.3066,2.3066,2.3124,2.3125,2.3126,2.3094,2.3092,2.3089,2.3087,2.3136,2.3139,2.3143,2.3213,0,0,2.3156,2.3157,0,0,0,0,0,0,0,0,2.3,2.3007,2.3067,2.3067,2.3067,2.3101,2.3099,2.3155,2.3094,2.3083,2.3089,2.3086,2.3127,2.3131,2.3145,2.3215,2.3217,2.3156,2.3158,2.316,2.3161,0,0,0,0,0,0,0,2.2996,2.3005,2.3095,2.3068,2.3068,2.3059,2.3064,2.3109,2.3117,2.3084,2.3082,2.3088,2.3126,2.3142,2.3146,2.3218,2.3156,2.3159,2.3162,2.3164,2.3343,2.3345,0,0,0,0,0,0,2.2994,2.3002,2.3093,2.3096,2.3027,2.3063,2.3068,2.3092,2.3116,2.3118,2.309,2.3086,2.3136,2.3142,2.3148,2.3228,2.316,2.3164,2.3166,2.334,2.3343,2.3346,0,0,0,0,0,0,2.2991,2.3002,2.3091,2.3049,2.3059,2.3067,2.3094,2.3094,2.3109,2.3121,2.3122,2.3104,2.3134,2.3142,2.3196,2.3229,2.3166,2.3169,2.3337,2.3341,2.3344,2.3389,0,0,0,0,0,0,2.2988,2.3002,2.3029,2.305,2.3062,2.314,2.3096,2.3097,2.3117,2.3112,2.3135,2.3136,2.3133,2.319,2.32,2.3233,2.3173,2.3335,2.3339,2.3343,2.3385,2.3394,2.3402,0,0,0,0,0,2.2983,2.3041,2.3031,2.3042,2.3097,2.3142,2.3149,2.3145,2.312,2.3146,2.3153,2.3135,2.3224,2.3196,2.3207,2.3242,2.3332,2.3338,2.3343,2.3381,2.3392,2.3402,0,0,0,0,0,0,2.3024,2.3043,2.3032,2.3098,2.3119,2.3136,2.317,2.3157,2.3185,2.318,2.3173,2.3178,2.3234,2.3244,2.3212,2.3308,2.3274,2.3282,2.3299,2.331,2.3318,2.3314,2.3176,0,0,0,0,0,2.3041,2.3077,2.3091,2.3148,2.3158,2.3163,2.3182,2.3177,2.3198,2.3206,2.3217,2.3238,2.3269,2.3291,2.3321,2.3387,2.3389,2.3416,2.3424,2.3431,2.3437,2.3469,2.3479,2.3363,2.3363,2.3363,0,0,2.3075,2.309,2.3113,2.3156,2.3171,2.3207,2.317,2.3211,2.3236,2.3212,2.3263,2.3272,2.3293,2.3352,2.3379,2.3362,2.347,2.3438,2.3443,2.3445,2.3475,2.3486,2.3496,2.3366,2.3366,2.3365,0,0,2.3155,2.3172,2.3219,2.3234,2.3257,2.3259,2.3271,2.329,2.3295,2.3345,2.3327,2.3357,2.3414,2.3429,2.3444,2.3527,2.3511,2.3538,2.358,2.3611,2.362,2.3628,2.3655,2.3665,2.3544,2.3544,2.3544,0,2.3195,2.3249,2.3244,2.3285,2.3303,2.3283,2.3328,2.3344,2.3376,2.3388,2.3369,2.3437,2.3451,2.3511,2.3531,2.3545,2.3555,2.3534,2.362,2.3628,2.3635,2.366,2.367,2.3547,2.3547,2.3546,2.3546,0,2.3295,2.3332,2.3367,2.3397,2.3419,2.3463,2.3463,2.3485,2.3478,2.3481,2.3531,2.3547,2.3578,2.3593,2.3587,2.3651,2.364,2.3621,2.3586,2.3649,2.3672,2.3682,2.3551,2.355,2.3549,2.3548,0,0,2.3402,2.3427,2.344,2.3452,2.3475,2.3503,2.3544,2.3575,2.3593,2.3615,2.3647,2.3695,2.3676,2.3693,2.3688,2.3716,2.3776,2.3693,2.3693,2.3705,2.3844,2.3856,2.3867,2.3766,2.3768,2.377,2.3841,0,2.3481,2.3552,2.3548,2.3615,2.3647,2.3627,2.3662,2.368,2.3684,2.3711,2.3715,2.3747,2.3722,2.3731,2.3758,2.3763,2.3803,2.3758,2.3793,2.3795,2.3786,2.388,2.3893,2.396,2.385,2.3852,2.3853,0,2.3583,2.3607,2.3676,2.3691,2.3705,2.3737,2.3762,2.3789,2.3807,2.3808,2.3826,2.3816,2.3855,2.3821,2.3873,2.3842,2.3857,2.3861,2.3864,2.3864,2.3826,2.388,2.3982,2.399,2.3868,2.3867,2.3866,0,2.3649,2.37,2.3747,2.3758,2.3778,2.38,2.3809,2.3825,2.3842,2.3865,2.3875,2.3903,2.3917,2.3937,2.3933,2.391,2.3986,2.3952,2.3985,2.3985,2.4,2.3998,2.4102,2.4015,2.4014,2.4014,2.4014,0,2.3736,2.3778,2.3776,2.3805,2.3851,2.3845,2.389,2.3897,2.391,2.3939,2.3924,2.3951,2.3946,2.3972,2.397,2.4011,2.4019,2.4019,2.4017,2.4018,2.4018,2.4026,2.402,2.4017,2.4016,2.4016,2.4015,0,2.3817,2.3818,2.3867,2.3881,2.3885,2.3918,2.3929,2.3955,2.3958,2.3993,2.4001,2.4005,2.4034,2.4033,2.4068,2.4066,2.4116,2.4111,2.4109,2.4107,2.4139,2.4134,2.4248,2.4261,2.4168,2.4169,2.417,0,2.3871,2.3903,2.3919,2.3937,2.3947,2.3976,2.3993,2.3988,2.4006,2.4027,2.405,2.4079,2.4101,2.4149,2.4153,2.4178,2.4172,2.421,2.4175,2.4174,2.4168,2.4165,2.4166,2.4216,2.4217,2.4218,2.4218,0,2.3966,2.3963,2.3989,2.4014,2.4034,2.4054,2.4071,2.4086,2.4083,2.4104,2.4133,2.4151,2.4184,2.4211,2.4235,2.4243,2.4229,2.4229,2.4237,2.4238,2.4234,2.4233,2.4124,2.4226,2.4225,2.4225,2.4224,2.4224,2.4033,2.4058,2.4073,2.41,2.4113,2.4129,2.4153,2.4158,2.4182,2.4209,2.4204,2.4237,2.4251,2.4281,2.4291,2.4316,2.4302,2.4315,2.4318,2.432,2.4322,2.4233,2.432,2.432,2.432,2.432,2.432,0,2.4123,2.4131,2.4156,2.418,2.4201,2.4187,2.4205,2.4223,2.4252,2.4267,2.4288,2.4321,2.4346,2.4352,2.4377,2.4394,2.4388,2.4401,2.4398,2.4399,2.4335,2.4323,2.4405,2.4405,2.4405,2.4405,2.4405,2.4405,2.4172,2.4213,2.4213,2.4259,2.4267,2.4298,2.4309,2.4323,2.4334,2.4371,2.4392,2.4396,2.4406,2.443,2.4452,2.4453,2.4461,2.4476,2.4474,2.4413,2.4404,2.4396,2.4385,2.4478,2.4478,2.4536,2.4536,2.4537]},{"header":{"parameterUnit":"m.s-1","parameterCategory":1,"la1":30.2991,"la2":30.254,"lo1":-89.0895,"lo2":-89.0444,"dy":0.0017,"dx":0.0017,"nx":28,"ny":28,"refTime":"2025-09-03T09:00:00:Z","depth":0,"parameterNumber":3,"parameterNumberName":"V-component_of_WINDS"},"data":[0,0,0,0,0,0,0,0,0,0,0,0,0,0,0,0,0,0,0,0,0,0,0,0,0,0,0,0,0,0,0,0,0,0,0,0,0,0,0,0,0,0,0,0,0,0,0,0,0,0,0,0,0,0,0,0,0,0,0.3203,0.3204,0,0.3307,0.3308,0.3309,0.3338,0.3337,0.3337,0.3336,0.3445,0.3449,0.3452,0,0,0,0,0,0,0,0,0,0,0,0,0,0.3031,0.3034,0.3203,0.3204,0.3205,0.3306,0.3308,0.3309,0.3338,0.3337,0.3336,0.3336,0.3444,0.3448,0.3452,0,0,0,0,0,0,0,0,0,0,0,0,0,0.3118,0.3035,0.3202,0.3232,0.3235,0.3306,0.3308,0.331,0.3338,0.3337,0.3336,0.3335,0.3443,0.3448,0.3453,0.3503,0,0,0.3469,0.3471,0,0,0,0,0,0,0,0,0.3113,0.3124,0.3226,0.323,0.3234,0.3308,0.3288,0.3375,0.3338,0.3299,0.3336,0.3335,0.3401,0.3409,0.3431,0.3508,0.3513,0.3469,0.3473,0.3475,0.3476,0,0,0,0,0,0,0,0.3107,0.312,0.3244,0.3228,0.3232,0.324,0.3252,0.3304,0.3354,0.3302,0.3305,0.3316,0.3403,0.3426,0.3434,0.3515,0.3469,0.3474,0.3477,0.3479,0.3638,0.3639,0,0,0,0,0,0,0.3095,0.3114,0.3241,0.3247,0.317,0.3244,0.3257,0.3285,0.3353,0.3363,0.3317,0.3317,0.3417,0.3428,0.3438,0.35,0.3475,0.348,0.3483,0.3636,0.3638,0.3639,0,0,0,0,0,0,0.3091,0.3106,0.3236,0.3181,0.3198,0.3248,0.328,0.3288,0.3311,0.3364,0.3374,0.3331,0.3417,0.343,0.3486,0.3505,0.3482,0.3487,0.3635,0.3637,0.3638,0.3626,0,0,0,0,0,0,0.3086,0.3105,0.3124,0.3182,0.3201,0.3283,0.3281,0.3291,0.332,0.3321,0.338,0.3389,0.3417,0.3478,0.3491,0.3511,0.3491,0.3634,0.3636,0.3638,0.3625,0.3627,0.3629,0,0,0,0,0,0.308,0.3117,0.3125,0.314,0.3226,0.3284,0.3295,0.3326,0.3321,0.3341,0.3375,0.3387,0.35,0.3484,0.3499,0.3521,0.3633,0.3635,0.3638,0.3624,0.3627,0.3629,0,0,0,0,0,0,0.3062,0.3126,0.3134,0.3191,0.3232,0.3288,0.3315,0.3328,0.3371,0.3371,0.3408,0.3421,0.3474,0.3503,0.3484,0.3572,0.3567,0.3572,0.3552,0.3554,0.3556,0.3548,0.3495,0,0,0,0,0,0.3065,0.3105,0.3159,0.3204,0.3223,0.3265,0.3292,0.3311,0.3355,0.3373,0.3411,0.3454,0.3499,0.3528,0.3573,0.3629,0.3642,0.3651,0.3653,0.3654,0.3659,0.369,0.3695,0.3647,0.3647,0.3647,0,0,0.3071,0.311,0.3134,0.3201,0.3235,0.3276,0.328,0.3324,0.3356,0.338,0.3435,0.3464,0.3515,0.3571,0.3597,0.3596,0.3675,0.3658,0.3658,0.3662,0.3693,0.3698,0.3702,0.3649,0.3648,0.3648,0,0,0.3103,0.3137,0.3177,0.321,0.3261,0.3288,0.3298,0.3352,0.3372,0.3428,0.3447,0.3485,0.3562,0.3596,0.3624,0.3667,0.368,0.3681,0.3691,0.3721,0.3725,0.3728,0.3743,0.3748,0.3685,0.3685,0.3685,0,0.3104,0.3167,0.3197,0.324,0.3269,0.3291,0.3333,0.3364,0.3427,0.3446,0.3444,0.3539,0.3575,0.3639,0.3649,0.3671,0.3683,0.3675,0.3721,0.3725,0.3729,0.3744,0.3749,0.3685,0.3685,0.3685,0.3685,0,0.3166,0.3209,0.3236,0.3294,0.3326,0.3368,0.3405,0.3434,0.345,0.3478,0.3533,0.3576,0.3629,0.3646,0.3663,0.3712,0.371,0.3714,0.3709,0.3733,0.3747,0.3753,0.3684,0.3684,0.3684,0.3684,0,0,0.3191,0.3264,0.3273,0.33,0.3356,0.339,0.3433,0.3484,0.3507,0.355,0.3587,0.365,0.3653,0.3685,0.3706,0.3732,0.3763,0.3733,0.3735,0.3737,0.3819,0.3816,0.3822,0.3771,0.3773,0.3774,0.3815,0,0.3231,0.3307,0.3334,0.3397,0.3437,0.3458,0.3496,0.3534,0.3561,0.3599,0.3629,0.3673,0.3675,0.3694,0.372,0.3753,0.378,0.3751,0.3807,0.3808,0.3794,0.383,0.3827,0.3864,0.3821,0.3822,0.3823,0,0.3287,0.3328,0.3394,0.3444,0.3462,0.3495,0.3543,0.3579,0.3623,0.3641,0.3675,0.3694,0.374,0.3731,0.3795,0.3774,0.3799,0.3818,0.382,0.3827,0.3817,0.3838,0.3877,0.3882,0.3832,0.3831,0.3831,0,0.3298,0.337,0.3419,0.3441,0.3501,0.3523,0.3549,0.3592,0.3621,0.3663,0.3681,0.3728,0.3754,0.379,0.3822,0.3813,0.3882,0.3877,0.3898,0.3898,0.3913,0.3912,0.3956,0.3928,0.3928,0.3928,0.3927,0,0.334,0.338,0.3425,0.3455,0.35,0.3531,0.3575,0.3603,0.3641,0.3677,0.3698,0.3732,0.377,0.3809,0.3834,0.3882,0.3894,0.391,0.3916,0.3908,0.3906,0.3925,0.3924,0.3929,0.3929,0.3928,0.3928,0,0.3361,0.3393,0.3447,0.3498,0.3512,0.3543,0.3587,0.3618,0.3644,0.3689,0.3702,0.3744,0.3791,0.3825,0.3886,0.3902,0.3954,0.396,0.3939,0.3942,0.3962,0.3959,0.4021,0.403,0.3995,0.3995,0.3995,0,0.3385,0.3416,0.347,0.3495,0.352,0.356,0.3589,0.362,0.3649,0.37,0.3724,0.3772,0.3812,0.3885,0.3921,0.3967,0.3975,0.3993,0.3982,0.3973,0.3976,0.3973,0.3976,0.3995,0.3995,0.3996,0.3996,0,0.3425,0.3439,0.3478,0.3522,0.3555,0.3592,0.363,0.3649,0.3687,0.3718,0.3765,0.3796,0.3856,0.3903,0.3953,0.398,0.3995,0.3999,0.4006,0.3999,0.3985,0.3992,0.3943,0.3997,0.3997,0.3997,0.3997,0.3997,0.3449,0.3476,0.3518,0.3561,0.3592,0.3626,0.3656,0.3686,0.3725,0.3776,0.3793,0.3841,0.3884,0.3951,0.3979,0.4017,0.4017,0.4028,0.4031,0.4033,0.4032,0.3978,0.4027,0.4027,0.4027,0.4027,0.4027,0,0.3489,0.3517,0.3556,0.3606,0.364,0.3648,0.369,0.3718,0.3759,0.3797,0.3835,0.3889,0.3934,0.3973,0.402,0.4043,0.4051,0.4055,0.4054,0.406,0.403,0.4019,0.4048,0.4048,0.4048,0.4048,0.4048,0.4048,0.3514,0.3562,0.358,0.3643,0.3671,0.3717,0.374,0.3772,0.3802,0.386,0.3897,0.3922,0.396,0.401,0.4052,0.4062,0.4078,0.408,0.4092,0.4064,0.4062,0.4059,0.4049,0.4084,0.4084,0.4119,0.4119,0.4119]}]]